Terug naar catalogus

FLOCK 4Q 33

ActiefWetenschapPO
NORAD 58308·PAYLOAD·🇺🇸 United States

Gelanceerd Nov 11, 2023 vanaf Vandenberg Space Force Base

Loading…

Volgende Passages (komende 24 uur)

TLE

VersSource: Space-Track

Epoch: Sep 14, 2026, 05:45 UTC

1 58308U 23174BE  26257.24010242  .00268368  00000-0  13108-2 0  9996
2 58308  97.3760 353.8272 0004743 208.6966 151.4042 15.81598886159789

Volg FLOCK 4Q 33 in realtime met AllMySat

Download on the App Store